Location: Poughquag
(41.6090°N, 73.6820°W)
Time: 10:43:08
(UTC-04:00)

Tiros 1 - Pass Details

Date: 02 June 2020
Orbit: 630 x 664 km, 48.4° (Epoch: 06 July)

Event Time Altitude Azimuth Distance (km) Brightness Sun altitude
Rises 12:46:43 0° 242° (WSW) 2,973 10.7 70.7°
Reaches altitude 10° 12:49:04 10° 243° (WSW) 2,059 10.0 70.7°
Maximum altitude 12:53:50 85° 332° (NNW) 657 8.7 70.7°
Drops below altitude 10° 12:58:34 10° 61° (ENE) 2,045 9.7 70.7°
Sets 13:00:53 0° 62° (ENE) 2,950 10.4 70.6°
